Location: Rowland
(34.5359°N, 79.2929°W)
Time: 15:25:31
(UTC+00:00)

SR - Pass Details

Date: 09 October 2022
Orbit: 577 x 875 km, 66.7° (Epoch: 28 November)

Event Time Altitude Azimuth Distance (km) Brightness Sun altitude
Rises 08:39:36 0° 347° (NNW) 3,283 - -33.1°
Exits shadow 08:40:40 - 351° (N) 2,929 ? -32.9°
Reaches altitude 10° 08:42:43 10° 3° (N) 2,294 ? -32.5°
Maximum altitude 08:46:34 20° 51° (NE) 1,619 ? -31.7°
Drops below altitude 10° 08:50:11 10° 99° (E) 2,136 ? -31.0°
Sets 08:52:57 0° 116° (ESE) 2,991 ? -30.5°
